Weather History for Lee's Summit, MO

Change the Weather History Date:

Sunday, April 7, 2013

  Actual Average (KMKC) Record (KMKC)
Temperature  
Mean Temperature 62 °F -  
Max Temperature 73 °F 61 °F 82 °F (1999)
Min Temperature 53 °F 42 °F 19 °F (2007)
Degree Days  
Heating Degree Days 2    
Growing Degree Days 12 (Base 50)    
Moisture  
Dew Point 47 °F    
Average Humidity 60    
Maximum Humidity 88    
Minimum Humidity 39    
Precipitation  
Precipitation 0.28 in - - ()
Sea Level Pressure  
Sea Level Pressure 29.78 in    
Wind  
Wind Speed 5 mph (South)    
Max Wind Speed 12 mph    
Max Gust Speed 38 mph    
Visibility 10 miles    
Events Rain , Thunderstorm    
Averages and records for this station are not official NWS values.
T = Trace of Precipitation, MM = Missing Value Source: NWS Daily Summary

Daily Weather History Graph

Daily Weather History Graph

Search for Another Location

Airport:

Trip Planner

Search our weather history database for the weather conditions in past years. The results will help you decide how hot, cold, wet, or windy it might be!

Date:

Astronomy

Apr. 07, 2013 Rise Set
Actual Time 6:52 AM CDT 7:47 PM CDT
Civil Twilight 6:25 AM CDT 8:14 PM CDT
Nautical Twilight 5:53 AM CDT 8:46 PM CDT
Astronomical Twilight 5:19 AM CDT 9:20 PM CDT
Moon 5:09 AM CDT (4/7) 5:21 PM CDT (4/7)
Length of Visible Light 13h 49m
Length of Day
12h 54m
Waning Crescent, 8% of the Moon is Illuminated
Apr 7
Waning Crescent
Apr 10
New
Apr 18
First Quarter
Apr 25
Full
May 2
Last Quarter

Hourly Weather History & Observations

Time (CDT) Temp. Dew Point Humidity Pressure Visibility Wind Dir Wind Speed Gust Speed Precip Events Conditions
12:53 AM 57.0 °F 39.9 °F 53% 29.82 in 10.0 mi WSW 4.6 mph - N/A   Clear
1:53 AM 57.0 °F 39.9 °F 53% 29.83 in 10.0 mi SW 3.5 mph - N/A   Clear
2:53 AM 57.0 °F 41.0 °F 55% 29.81 in 10.0 mi SSW 4.6 mph - N/A   Clear
3:53 AM 53.1 °F 41.0 °F 64% 29.82 in 10.0 mi SW 4.6 mph - N/A   Clear
4:53 AM 53.1 °F 39.9 °F 61% 29.83 in 10.0 mi SSW 4.6 mph - N/A   Clear
5:53 AM 54.0 °F 39.9 °F 59% 29.83 in 10.0 mi SW 3.5 mph - N/A   Clear
6:53 AM 55.0 °F 39.9 °F 57% 29.85 in 10.0 mi SSW 3.5 mph - N/A   Clear
7:53 AM 55.0 °F 41.0 °F 59% 29.87 in 10.0 mi SSE 3.5 mph - N/A   Clear
8:53 AM 63.0 °F 43.0 °F 48% 29.87 in 10.0 mi Calm Calm - N/A   Clear
9:53 AM 68.0 °F 42.1 °F 39% 29.86 in 10.0 mi SSE 4.6 mph - N/A   Clear
11:53 AM 70.0 °F 45.0 °F 41% 29.86 in 10.0 mi SE 6.9 mph - N/A   Clear
12:53 PM 70.0 °F 46.0 °F 42% 29.86 in 10.0 mi SSE 6.9 mph - N/A   Partly Cloudy
1:53 PM 71.1 °F 46.9 °F 42% 29.82 in 10.0 mi South 8.1 mph - N/A   Partly Cloudy
2:53 PM 72.0 °F 46.0 °F 40% 29.80 in 10.0 mi South 8.1 mph - N/A   Mostly Cloudy
3:53 PM 70.0 °F 48.9 °F 47% 29.77 in 10.0 mi South 8.1 mph - N/A   Mostly Cloudy
4:53 PM 70.0 °F 50.0 °F 49% 29.76 in 10.0 mi SSE 9.2 mph - N/A   Overcast
5:53 PM 66.9 °F 51.1 °F 57% 29.72 in 10.0 mi ESE 8.1 mph - N/A   Mostly Cloudy
6:53 PM 66.9 °F 50.0 °F 54% 29.71 in 10.0 mi SSE 10.4 mph 20.7 mph N/A   Overcast
7:53 PM 66.0 °F 46.9 °F 50% 29.67 in 10.0 mi SE 11.5 mph 19.6 mph 0.00 in Thunderstorm Overcast
8:53 PM 60.1 °F 52.0 °F 75% 29.67 in 10.0 mi SE 11.5 mph 19.6 mph 0.09 in Rain , Thunderstorm Light Rain
9:41 PM 60.8 °F 51.8 °F 72% 29.72 in 4.0 mi Variable 5.8 mph 38.0 mph 0.17 in Rain , Thunderstorm Heavy Thunderstorms and Rain
9:53 PM 57.9 °F 53.1 °F 84% 29.71 in 10.0 mi SSE 5.8 mph - 0.18 in Rain , Thunderstorm Light Thunderstorms and Rain
10:13 PM 59.0 °F 53.6 °F 82% 29.73 in 10.0 mi South 4.6 mph - 0.01 in   Overcast
10:40 PM 59.0 °F 53.6 °F 82% 29.73 in 10.0 mi Calm Calm - 0.01 in   Overcast
10:53 PM 57.9 °F 54.0 °F 87% 29.72 in 10.0 mi WNW 4.6 mph - 0.01 in   Overcast
11:38 PM 57.2 °F 53.6 °F 88% 29.71 in 10.0 mi SE 3.5 mph - N/A   Overcast
11:53 PM 59.0 °F 55.0 °F 87% 29.69 in 10.0 mi South 6.9 mph - N/A   Overcast